Regional Weather Roundup
Issued by NWS

Home | Current Version | Previous Version | Graphics & Text | Print | Product List | Glossary On
Versions: 1 2 3 4 5 6 7 8 9 10 11 12 13 14 15 16 17 18 19 20 21 22 23 24 25 26 27 28 29 30 31 32 33 34 35 36 37 38 39 40 41 42 43 44 45 46 47 48 49 50
000
ASUS43 KFSD 281802
RWRSD

WEATHER ROUNDUP FOR SOUTH DAKOTA
NATIONAL WEATHER SERVICE SIOUX FALLS SD
1200 PM CST SAT FEB 28 2015

NOTE: "FAIR" INDICATES FEW OR NO CLOUDS BELOW 12,000 FEET WITH NO
SIGNIFICANT WEATHER AND/OR OBSTRUCTIONS TO VISIBILITY.


SDZ001>005-009-010-012>017-281900-
NORTHWEST AND NORTH CENTRAL SOUTH DAKOTA

CITY           SKY/WX    TMP DP  RH WIND       PRES   REMARKS
BUFFALO          N/A     14   4  64 NW25G32   30.05S WCI  -5
FAITH            N/A     23   1  38 NW22G30   30.11R WCI   8
MOBRIDGE       CLOUDY    24  12  60 NW13      30.10R WCI  12
$$

SDZ012>016-024>037-041>051-057-063-072>074-281900-
SOUTHWEST AND SOUTH CENTRAL SOUTH DAKOTA

CITY           SKY/WX    TMP DP  RH WIND       PRES   REMARKS
RAPID CTY ARPT SUNNY     20   8  60 N22       30.10S WCI   3
PIERRE         SUNNY     29  11  47 W13       30.14F WCI  19
CUSTER         MOSUNNY   22   7  52 SW8       29.93S WCI  12
ELLSWORTH AFB  SUNNY     20   5  52 N20G28    30.08F WCI   4
PHILIP         SUNNY     28   2  32 NW22G29   30.14F WCI  14
PINE RIDGE     SUNNY     25   7  46 N8        30.11S WCI  16
WINNER         FAIR      29   8  41 SW14      30.17F WCI  18
$$

SDZ004>011-016>023-039-040-281900-
NORTHEAST SOUTH DAKOTA

CITY           SKY/WX    TMP DP  RH WIND       PRES   REMARKS
ABERDEEN       MOSUNNY   21  10  62 S20       30.20F WCI   6
WATERTOWN      SUNNY     18   9  68 S18G25    30.22F WCI   2
SISSETON         N/A     22  11  62 S21       30.24F WCI   6
$$

SDZ017-020-022-023-036>040-048>070-281900-
SOUTHEAST SOUTH DAKOTA

CITY           SKY/WX    TMP DP  RH WIND       PRES   REMARKS
SIOUX FALLS    MOSUNNY   19   9  65 S20       30.33F WCI   3
HURON          MOSUNNY   24  11  57 S17G23    30.24F WCI  11
MITCHELL       PTSUNNY   27   8  44 S16G25    30.28F WCI  15
YANKTON        MOSUNNY   25   9  50 S17G24    30.35F WCI  11
$$

ABBREVIATIONS USED IN REMARKS
   TC - TEMPERATURE IN CELSIUS
  WCI - WIND CHILL INDEX
   HX - HEAT INDEX
  VSB - VISIBILITY




USA.gov is the U.S. government's official web portal to all federal, state and local government web resources and services.